Flag Weather past 2 weeks in Columbus, Georgia, U.S.A.

Now
45 °F

Clear.


Feels Like: 40 °F
Forecast: 28 / 51 °F
Wind: 10 mph from Northwest

Location: Columbus Metropolitan Airport

Current Time: Nov 27, 2014 at 7:30:02 PM

Latest Report: Nov 27, 2014 at 6:51 PM


Visibility: 10 mi

Pressure: 30.37 "Hg

Humidity: 49%

Dew point: 27 °F

Location of ColumbusLocation

Historic Weather in Columbus — Graph

°F

Columbus temperature yesterday

Maximum temperature yesterday: 60 °F (at 2:51 PM)
Minimum temperature yesterday: 42 °F (at 6:51 AM)
Average temperature yesterday: 50 °F

Past Weeks' High & Low Weather Summary

 TemperatureHumidityPressure
High77 °F (Nov 24, 1:51 PM)100% (Nov 23, 8:01 AM)30.48 "Hg (Nov 23, 8:01 AM)
Low21 °F (Nov 19, 6:51 AM)19% (Nov 14, 3:51 PM)29.66 "Hg (Nov 23, 2:51 PM)
Average48 °F63%30.16 "Hg
* Reported Nov 12 5:51 PM — Nov 27 5:51 PM, Columbus, Weather by CustomWeather, © 2014

Note: Actual official high and low records may vary slightly from our data, if they occured in-between our weather recording intervals... More about our weather records

Advertising

Columbus weather history for previous 24 hours

 ConditionsComfort  
Time TempWeatherWind HumidityBarometerVisibility
5:51 PM
Nov 27
47 °FClear.10 mph46%30.35 "Hg10 mi
4:51 PM49 °FSunny.12 mph41%30.33 "Hg10 mi
3:51 PM51 °FSunny.13 mph39%30.30 "Hg10 mi
2:51 PM51 °FSunny.14 mph38%30.29 "Hg10 mi
1:51 PM50 °FPassing clouds.14 mph41%30.30 "Hg10 mi
12:51 PM51 °FPassing clouds.13 mph39%30.30 "Hg10 mi
11:51 AM50 °FScattered clouds.9 mph43%30.32 "Hg10 mi
10:51 AM50 °FSunny.17 mph44%30.32 "Hg10 mi
9:51 AM47 °FSunny.15 mph52%30.32 "Hg10 mi
8:51 AM45 °FSunny.10 mph56%30.29 "Hg10 mi
7:51 AM41 °FSunny.3 mph62%30.27 "Hg10 mi
6:51 AM42 °FClear.7 mph57%30.24 "Hg10 mi
5:51 AM44 °FClear.10 mph51%30.21 "Hg10 mi
4:51 AM45 °FClear.13 mph49%30.19 "Hg10 mi
3:51 AM46 °FClear.8 mph54%30.17 "Hg10 mi
2:51 AM47 °FClear.10 mph56%30.15 "Hg10 mi
1:51 AM47 °FPassing clouds.9 mph59%30.14 "Hg10 mi
12:51 AM47 °FClear.5 mph56%30.14 "Hg10 mi
11:51 PM
Nov 26
48 °FOvercast.8 mph54%30.12 "Hg10 mi
10:51 PM47 °FClear.9 mph54%30.10 "Hg10 mi
9:51 PM45 °FClear.6 mph60%30.12 "Hg10 mi
8:51 PM47 °FClear.No wind52%30.13 "Hg10 mi
7:51 PM48 °FClear.3 mph48%30.11 "Hg10 mi
Weather by CustomWeather, © 2014

See weather overviewHow to use our weather pages